sat.trackr.live / text

‹ back to catalog

STARLINK-4167

NORAD 53033 · 2022-076AZ

PAYLOAD ACTIVE UNKNOWN

§ Identity

Operator
Country
US
Launch date
2022-07-07
Launch site
AFETR
Launch vehicle
Mass (kg)
RCS (m²)

Purposes: comms

External: N2YO · Heavens-Above · Gunter

§ Orbital elements

Epoch: 2026-05-25T03:10:29.443008Z

Period
95.44 min
Inclination
53.2126°
Eccentricity
0.0002261
Mean motion
15.08833808 rev/d
Perigee alt
538.2 km
Apogee alt
541.3 km
Semi-major
6,917.9 km
B*
-1.3042e-4
RAAN
90.9565°
Arg perigee
88.4068°
Mean anomaly
271.7183°
Rev number
21,466

§ Raw data

STARLINK-41671 53033U 22076AZ  26145.13228522 -.00002363  00000+0 -13042-3 0  99922 53033  53.2126  90.9565 0002261  88.4068 271.7183 15.08833808214666

JSON: /api/v1/satellites/53033 · /tle

For live sub-satellite position, see the globe view (requires WebGL).

§ Visibility from observer

Set your observer location to see the next 7 days of passes ≥ 10°. The values pass through the URL so the page stays shareable.

No JS? Fill the form by hand. The geolocation button needs JavaScript.